SWA2055 KRNO-KLAS

Flight info

Callsign SWA2055
Flight time 0h 58m
Altitude 33000
Route ALPYN1 YERIN TQILA COKTL4
Aircraft B38M/M-SDE1FGHILORVWXY/HB1

Departure

Time 2026-05-07 19:20
Airport Reno Tahoe International Airport (KRNO)

Arrival

Time 2026-05-07 20:19
Airport Harry Reid International Airport (KLAS)
Time Latitude Longitude Altitude Speed Heading
2026-05-07 18:45 39.50744 -119.77294 4522 ft 0 kts 182°
2026-05-07 19:02 39.50751 -119.77294 4527 ft 4 kts 180°
2026-05-07 19:02 39.50778 -119.77298 4519 ft 4 kts 160°
2026-05-07 19:02 39.50798 -119.77316 4520 ft 4 kts 120°
2026-05-07 19:02 39.50802 -119.77332 4520 ft 1 kts 90°
2026-05-07 19:09 39.50802 -119.77327 4522 ft 2 kts 90°
2026-05-07 19:09 39.50802 -119.77285 4522 ft 6 kts 90°
2026-05-07 19:10 39.50801 -119.77203 4522 ft 13 kts 91°
2026-05-07 19:10 39.50743 -119.77150 4522 ft 12 kts 179°
2026-05-07 19:10 39.50660 -119.77149 4522 ft 12 kts 179°
2026-05-07 19:10 39.50570 -119.77150 4522 ft 13 kts 180°
2026-05-07 19:11 39.50477 -119.77150 4522 ft 14 kts 180°
2026-05-07 19:11 39.50378 -119.77151 4522 ft 15 kts 180°
2026-05-07 19:11 39.50275 -119.77152 4522 ft 15 kts 180°
2026-05-07 19:11 39.50167 -119.77151 4521 ft 16 kts 180°
2026-05-07 19:12 39.50054 -119.77152 4521 ft 17 kts 180°
2026-05-07 19:12 39.49936 -119.77152 4521 ft 18 kts 181°
2026-05-07 19:12 39.49794 -119.77153 4521 ft 17 kts 180°
2026-05-07 19:12 39.49718 -119.77154 4520 ft 9 kts 180°
2026-05-07 19:13 39.49650 -119.77154 4522 ft 12 kts 180°
2026-05-07 19:13 39.49538 -119.77154 4523 ft 21 kts 180°
2026-05-07 19:13 39.49382 -119.77154 4525 ft 23 kts 180°
2026-05-07 19:13 39.49220 -119.77154 4524 ft 23 kts 180°
2026-05-07 19:14 39.49073 -119.77155 4523 ft 23 kts 180°
2026-05-07 19:14 39.48940 -119.77139 4521 ft 15 kts 136°
2026-05-07 19:14 39.48926 -119.77017 4520 ft 13 kts 89°
2026-05-07 19:14 39.48925 -119.76900 4520 ft 13 kts 89°
2026-05-07 19:15 39.48925 -119.76807 4519 ft 2 kts 89°
2026-05-07 19:17 39.48925 -119.76803 4519 ft 2 kts 89°
2026-05-07 19:17 39.48926 -119.76765 4520 ft 8 kts 89°
2026-05-07 19:17 39.48956 -119.76687 4522 ft 12 kts 25°
2026-05-07 19:17 39.48975 -119.76681 4521 ft 0 kts
2026-05-07 19:19 39.48979 -119.76681 4521 ft 4 kts
2026-05-07 19:19 39.49240 -119.76681 4526 ft 72 kts
2026-05-07 19:20 39.49954 -119.76679 4526 ft 132 kts
2026-05-07 19:20 39.51047 -119.76688 4532 ft 179 kts
2026-05-07 19:20 39.52348 -119.76685 5001 ft 191 kts 358°
2026-05-07 19:20 39.53677 -119.76671 5700 ft 191 kts 358°
2026-05-07 19:21 39.55007 -119.76654 6342 ft 192 kts 358°
2026-05-07 19:21 39.56370 -119.76641 6896 ft 199 kts 356°
2026-05-07 19:21 39.57782 -119.76477 7334 ft 217 kts 16°
2026-05-07 19:21 39.59117 -119.75369 7624 ft 244 kts 47°
2026-05-07 19:22 39.59903 -119.73311 7924 ft 270 kts 81°
2026-05-07 19:22 39.59986 -119.70861 8446 ft 279 kts 88°
2026-05-07 19:22 39.60075 -119.68330 8865 ft 281 kts 87°
2026-05-07 19:22 39.60173 -119.65814 9800 ft 279 kts 87°
2026-05-07 19:23 39.60098 -119.63256 10371 ft 292 kts 105°
2026-05-07 19:23 39.59169 -119.60860 10762 ft 307 kts 133°
2026-05-07 19:23 39.57488 -119.59058 11134 ft 323 kts 148°
2026-05-07 19:23 39.55612 -119.57354 11462 ft 342 kts 146°
2026-05-07 19:24 39.53635 -119.55538 12008 ft 354 kts 147°
2026-05-07 19:24 39.51611 -119.53681 12757 ft 358 kts 147°
2026-05-07 19:24 39.49552 -119.51794 13384 ft 367 kts 147°
2026-05-07 19:24 39.47461 -119.49880 14128 ft 368 kts 147°
2026-05-07 19:25 39.45361 -119.47959 14801 ft 372 kts 147°
2026-05-07 19:25 39.43230 -119.46011 15432 ft 376 kts 146°
2026-05-07 19:25 39.41077 -119.44046 16088 ft 380 kts 146°
2026-05-07 19:25 39.38902 -119.42063 16673 ft 386 kts 146°
2026-05-07 19:26 39.36704 -119.40059 17299 ft 389 kts 146°
2026-05-07 19:26 39.34474 -119.38028 17891 ft 394 kts 146°
2026-05-07 19:26 39.32222 -119.35978 18472 ft 398 kts 146°
2026-05-07 19:26 39.29956 -119.33918 19031 ft 400 kts 146°
2026-05-07 19:27 39.27670 -119.31841 19598 ft 403 kts 146°
2026-05-07 19:27 39.25369 -119.29751 20147 ft 406 kts 145°
2026-05-07 19:27 39.23093 -119.27570 20659 ft 409 kts 138°
2026-05-07 19:27 39.21041 -119.25004 21184 ft 412 kts 135°
2026-05-07 19:28 39.18969 -119.22404 21697 ft 416 kts 135°
2026-05-07 19:28 39.16915 -119.19829 22233 ft 418 kts 135°
2026-05-07 19:28 39.14827 -119.17212 22772 ft 420 kts 135°
2026-05-07 19:28 39.12727 -119.14582 23289 ft 423 kts 135°
2026-05-07 19:29 39.10600 -119.11921 23753 ft 426 kts 135°
2026-05-07 19:29 39.08462 -119.09248 24174 ft 428 kts 135°
2026-05-07 19:29 39.06321 -119.06574 24589 ft 431 kts 135°
2026-05-07 19:29 39.04161 -119.03878 24998 ft 433 kts 135°
2026-05-07 19:30 39.01989 -119.01170 25405 ft 436 kts 135°
2026-05-07 19:30 38.99826 -118.98475 25798 ft 438 kts 135°
2026-05-07 19:30 38.97619 -118.95763 26201 ft 441 kts 136°
2026-05-07 19:30 38.95367 -118.93061 26563 ft 445 kts 136°
2026-05-07 19:31 38.93102 -118.90335 26935 ft 447 kts 136°
2026-05-07 19:31 38.90825 -118.87596 27353 ft 449 kts 136°
2026-05-07 19:31 38.88516 -118.84820 27718 ft 452 kts 136°
2026-05-07 19:31 38.86243 -118.82090 28080 ft 454 kts 136°
2026-05-07 19:32 38.83921 -118.79302 28497 ft 456 kts 136°
2026-05-07 19:32 38.81598 -118.76516 28856 ft 459 kts 136°
2026-05-07 19:32 38.79256 -118.73711 29200 ft 461 kts 136°
2026-05-07 19:32 38.76905 -118.70896 29549 ft 463 kts 136°
2026-05-07 19:33 38.74542 -118.68071 29886 ft 466 kts 136°
2026-05-07 19:33 38.72167 -118.65234 30202 ft 468 kts 136°
2026-05-07 19:33 38.69772 -118.62375 30457 ft 471 kts 136°
2026-05-07 19:33 38.67404 -118.59552 30780 ft 472 kts 136°
2026-05-07 19:34 38.64995 -118.56683 31181 ft 474 kts 136°
2026-05-07 19:34 38.62575 -118.53803 31467 ft 476 kts 136°
2026-05-07 19:34 38.60144 -118.50913 31748 ft 478 kts 136°
2026-05-07 19:34 38.57704 -118.48015 32039 ft 479 kts 136°
2026-05-07 19:35 38.55258 -118.45111 32395 ft 479 kts 136°
2026-05-07 19:35 38.52820 -118.42222 32816 ft 477 kts 136°
2026-05-07 19:35 38.51212 -118.40317 33043 ft 477 kts 136°
2026-05-07 19:35 38.47959 -118.36468 33107 ft 474 kts 136°
2026-05-07 19:36 38.43937 -118.31715 33069 ft 474 kts 136°
2026-05-07 19:36 38.39086 -118.25992 33041 ft 474 kts 136°
2026-05-07 19:37 38.34244 -118.20292 33025 ft 473 kts 136°
2026-05-07 19:37 38.29396 -118.14595 33011 ft 473 kts 136°
2026-05-07 19:38 38.24583 -118.08950 33024 ft 474 kts 136°
2026-05-07 19:38 38.19730 -118.03269 33016 ft 474 kts 136°
2026-05-07 19:39 38.14867 -117.97588 33008 ft 475 kts 136°
2026-05-07 19:39 38.10004 -117.91916 33014 ft 475 kts 136°
2026-05-07 19:40 38.05143 -117.86257 33013 ft 473 kts 136°
2026-05-07 19:40 38.00293 -117.80622 33011 ft 473 kts 136°
2026-05-07 19:41 37.95440 -117.74995 33005 ft 473 kts 136°
2026-05-07 19:41 37.90590 -117.69381 33013 ft 472 kts 136°
2026-05-07 19:42 37.85735 -117.63772 33007 ft 472 kts 136°
2026-05-07 19:42 37.80886 -117.58181 33015 ft 472 kts 136°
2026-05-07 19:43 37.76030 -117.52591 33019 ft 472 kts 136°
2026-05-07 19:43 37.71207 -117.47050 33027 ft 471 kts 136°
2026-05-07 19:44 37.66336 -117.41464 33018 ft 473 kts 136°
2026-05-07 19:44 37.61460 -117.35882 33019 ft 473 kts 136°
2026-05-07 19:45 37.56629 -117.30361 33033 ft 458 kts 136°
2026-05-07 19:45 37.51983 -117.25060 33017 ft 435 kts 136°
2026-05-07 19:46 37.49796 -117.22568 33068 ft 415 kts 136°
2026-05-07 19:46 37.47684 -117.20210 33051 ft 406 kts 141°
2026-05-07 19:46 37.43075 -117.16141 33035 ft 402 kts 143°
2026-05-07 19:47 37.38488 -117.12141 33015 ft 401 kts 143°
2026-05-07 19:47 37.33891 -117.08149 33014 ft 401 kts 143°
2026-05-07 19:48 37.29301 -117.04166 33008 ft 401 kts 143°
2026-05-07 19:48 37.24742 -117.00216 33012 ft 401 kts 143°
2026-05-07 19:49 37.20159 -116.96251 33004 ft 399 kts 143°
2026-05-07 19:49 37.15588 -116.92302 32999 ft 399 kts 143°
2026-05-07 19:50 37.11011 -116.88355 33000 ft 399 kts 143°
2026-05-07 19:50 37.06423 -116.84403 33003 ft 401 kts 143°
2026-05-07 19:51 37.01824 -116.80448 32990 ft 400 kts 143°
2026-05-07 19:51 36.97235 -116.76507 32990 ft 399 kts 143°
2026-05-07 19:52 36.92680 -116.72602 32989 ft 400 kts 143°
2026-05-07 19:52 36.88086 -116.68670 32970 ft 399 kts 143°
2026-05-07 19:53 36.83506 -116.64756 32973 ft 399 kts 143°
2026-05-07 19:53 36.78887 -116.60811 32976 ft 407 kts 143°
2026-05-07 19:54 36.74117 -116.56745 32850 ft 421 kts 143°
2026-05-07 19:54 36.69250 -116.52603 32751 ft 424 kts 143°
2026-05-07 19:55 36.66813 -116.50531 32355 ft 423 kts 143°
2026-05-07 19:55 36.64554 -116.48202 31935 ft 418 kts 129°
2026-05-07 19:55 36.62651 -116.45521 31497 ft 419 kts 129°
2026-05-07 19:55 36.60711 -116.42834 30839 ft 415 kts 129°
2026-05-07 19:56 36.58775 -116.40122 29829 ft 419 kts 129°
2026-05-07 19:56 36.56841 -116.37398 28711 ft 421 kts 129°
2026-05-07 19:56 36.54919 -116.34688 27555 ft 425 kts 129°
2026-05-07 19:56 36.52954 -116.31915 26469 ft 429 kts 129°
2026-05-07 19:57 36.50960 -116.29103 25595 ft 426 kts 129°
2026-05-07 19:57 36.49028 -116.26382 24799 ft 423 kts 129°
2026-05-07 19:57 36.47088 -116.23650 24022 ft 420 kts 129°
2026-05-07 19:57 36.45167 -116.20948 23405 ft 413 kts 129°
2026-05-07 19:58 36.43286 -116.18304 22870 ft 402 kts 129°
2026-05-07 19:58 36.41462 -116.15743 22481 ft 389 kts 129°
2026-05-07 19:58 36.39677 -116.13238 22095 ft 386 kts 129°
2026-05-07 19:58 36.37905 -116.10753 21627 ft 378 kts 129°
2026-05-07 19:59 36.36185 -116.08343 21249 ft 367 kts 129°
2026-05-07 19:59 36.34538 -116.06037 20887 ft 357 kts 129°
2026-05-07 19:59 36.32908 -116.03756 20501 ft 349 kts 129°
2026-05-07 19:59 36.31314 -116.01527 20093 ft 345 kts 129°
2026-05-07 20:00 36.29715 -115.99292 19593 ft 347 kts 129°
2026-05-07 20:00 36.28119 -115.97064 19089 ft 345 kts 129°
2026-05-07 20:00 36.26532 -115.94848 18596 ft 342 kts 128°
2026-05-07 20:00 36.24979 -115.92618 18075 ft 339 kts 125°
2026-05-07 20:01 36.23538 -115.90307 17515 ft 337 kts 125°
2026-05-07 20:01 36.22103 -115.88025 16987 ft 335 kts 125°
2026-05-07 20:01 36.20669 -115.85761 16434 ft 332 kts 125°
2026-05-07 20:01 36.19245 -115.83518 15915 ft 330 kts 126°
2026-05-07 20:02 36.17829 -115.81294 15396 ft 327 kts 126°
2026-05-07 20:02 36.16424 -115.79086 14885 ft 324 kts 126°
2026-05-07 20:02 36.15039 -115.76913 14521 ft 325 kts 126°
2026-05-07 20:02 36.13769 -115.74617 14214 ft 321 kts 112°
2026-05-07 20:03 36.12969 -115.72066 13953 ft 317 kts 109°
2026-05-07 20:03 36.12182 -115.69535 13651 ft 310 kts 108°
2026-05-07 20:03 36.11420 -115.67074 13320 ft 302 kts 109°
2026-05-07 20:03 36.10678 -115.64670 13025 ft 295 kts 108°
2026-05-07 20:04 36.09963 -115.62344 12709 ft 289 kts 109°
2026-05-07 20:04 36.09246 -115.60019 12440 ft 288 kts 109°
2026-05-07 20:04 36.08534 -115.57711 12237 ft 286 kts 109°
2026-05-07 20:04 36.07825 -115.55416 12039 ft 285 kts 110°
2026-05-07 20:05 36.07115 -115.53120 11835 ft 286 kts 109°
2026-05-07 20:05 36.06403 -115.50814 11621 ft 286 kts 110°
2026-05-07 20:05 36.05691 -115.48518 11399 ft 286 kts 109°
2026-05-07 20:05 36.04995 -115.46263 11231 ft 284 kts 109°
2026-05-07 20:06 36.04288 -115.43986 11050 ft 283 kts 109°
2026-05-07 20:06 36.03586 -115.41724 10962 ft 281 kts 110°
2026-05-07 20:06 36.02882 -115.39455 10971 ft 283 kts 110°
2026-05-07 20:06 36.02170 -115.37166 10991 ft 289 kts 110°
2026-05-07 20:07 36.01611 -115.34768 10944 ft 291 kts 94°
2026-05-07 20:07 36.01480 -115.32267 10844 ft 292 kts 91°
2026-05-07 20:07 36.01354 -115.29776 10698 ft 292 kts 91°
2026-05-07 20:07 36.01230 -115.27291 10418 ft 292 kts 91°
2026-05-07 20:08 36.01105 -115.24790 10184 ft 290 kts 91°
2026-05-07 20:08 36.00982 -115.22316 9938 ft 286 kts 91°
2026-05-07 20:08 36.00860 -115.19882 9669 ft 283 kts 91°
2026-05-07 20:08 36.00738 -115.17454 9413 ft 281 kts 91°
2026-05-07 20:09 36.00617 -115.15049 9161 ft 280 kts 91°
2026-05-07 20:09 36.00496 -115.12645 8898 ft 280 kts 91°
2026-05-07 20:09 36.00375 -115.10252 8654 ft 279 kts 91°
2026-05-07 20:10 36.00135 -115.05532 8158 ft 274 kts 92°
2026-05-07 20:10 36.00015 -115.03189 7908 ft 272 kts 92°
2026-05-07 20:10 35.99897 -115.00881 7713 ft 262 kts 91°
2026-05-07 20:10 35.99811 -114.98678 7479 ft 250 kts 91°
2026-05-07 20:11 35.99732 -114.96567 7230 ft 243 kts 91°
2026-05-07 20:11 35.99654 -114.94509 6933 ft 244 kts 91°
2026-05-07 20:11 35.99578 -114.92408 6634 ft 245 kts 91°
2026-05-07 20:11 35.99532 -114.90302 6321 ft 245 kts 84°
2026-05-07 20:12 36.00058 -114.88327 6048 ft 240 kts 56°
2026-05-07 20:12 36.01156 -114.86871 5962 ft 225 kts 33°
2026-05-07 20:12 36.02551 -114.86189 5915 ft 211 kts
2026-05-07 20:12 36.03975 -114.86307 5958 ft 212 kts 343°
2026-05-07 20:13 36.05342 -114.87111 5963 ft 223 kts 327°
2026-05-07 20:13 36.06670 -114.88155 5957 ft 229 kts 328°
2026-05-07 20:13 36.08030 -114.89191 5951 ft 229 kts 329°
2026-05-07 20:13 36.09394 -114.90218 5929 ft 229 kts 329°
2026-05-07 20:14 36.10762 -114.91239 5894 ft 227 kts 329°
2026-05-07 20:14 36.12075 -114.92214 5894 ft 213 kts 329°
2026-05-07 20:14 36.13115 -114.93433 5863 ft 207 kts 299°
2026-05-07 20:14 36.13512 -114.95132 5904 ft 209 kts 277°
2026-05-07 20:15 36.13664 -114.96928 5944 ft 210 kts 277°
2026-05-07 20:15 36.13793 -114.98734 5908 ft 211 kts 276°
2026-05-07 20:15 36.13900 -115.00531 5714 ft 207 kts 275°
2026-05-07 20:15 36.14000 -115.02305 5370 ft 206 kts 274°
2026-05-07 20:16 36.14094 -115.04062 4994 ft 202 kts 274°
2026-05-07 20:16 36.14183 -115.05758 4667 ft 192 kts 274°
2026-05-07 20:16 36.14209 -115.07399 4305 ft 189 kts 269°
2026-05-07 20:16 36.14190 -115.08961 3967 ft 175 kts 269°
2026-05-07 20:17 36.14170 -115.10397 3677 ft 160 kts 269°
2026-05-07 20:17 36.14044 -115.11754 3325 ft 158 kts 259°
2026-05-07 20:17 36.13719 -115.13041 2942 ft 156 kts 242°
2026-05-07 20:17 36.13041 -115.14019 2781 ft 150 kts 208°
2026-05-07 20:18 36.12072 -115.14494 2682 ft 150 kts 198°
2026-05-07 20:18 36.11108 -115.14991 2477 ft 150 kts 204°
2026-05-07 20:18 36.10167 -115.15527 2305 ft 147 kts 202°
2026-05-07 20:18 36.09289 -115.16029 2190 ft 127 kts 205°
2026-05-07 20:19 36.08724 -115.16355 2195 ft 57 kts 205°
2026-05-07 20:19 36.08495 -115.16465 2194 ft 25 kts 191°
2026-05-07 20:19 36.08331 -115.16487 2192 ft 9 kts 174°
2026-05-07 20:19 36.08293 -115.16479 2193 ft 6 kts 167°
2026-05-07 20:20 36.08230 -115.16445 2192 ft 16 kts 145°
2026-05-07 20:20 36.08161 -115.16272 2192 ft 28 kts 92°
2026-05-07 20:20 36.08219 -115.16075 2192 ft 25 kts 32°
2026-05-07 20:20 36.08352 -115.15997 2190 ft 16 kts 24°
2026-05-07 20:21 36.08422 -115.15957 2193 ft 17 kts 25°
2026-05-07 20:21 36.08535 -115.15891 2193 ft 18 kts 25°
2026-05-07 20:21 36.08629 -115.15796 2190 ft 18 kts 92°
2026-05-07 20:21 36.08554 -115.15720 2192 ft 14 kts 158°
2026-05-07 20:22 36.08505 -115.15636 2192 ft 13 kts 89°
2026-05-07 20:22 36.08444 -115.15560 2191 ft 14 kts 154°
2026-05-07 20:22 36.08362 -115.15498 2191 ft 13 kts 107°
2026-05-07 20:22 36.08394 -115.15402 2191 ft 13 kts 59°
2026-05-07 20:23 36.08461 -115.15383 2192 ft 9 kts 336°
2026-05-07 20:23 36.08490 -115.15400 2191 ft 0 kts 335°